User: anonymous   Login
Location: Unspecified
(0.0000°N, 0.0000°E)
Time: 22:06:01
(UTC+00:00)
Language:

Gurwin Techsat 1B - Orbit

View from above orbital plane
View from above orbital plane
View from above satellite
View from above satellite

Ground track
Ground track

The orbit data is extracted from the following two-line orbital elements,

1 25397U 98043D   20184.13375579 -.00000029  00000-0  64558-5 0  9990
2 25397  98.7290 125.5200 0002006  50.2517 309.8838 14.23686921141867
Epoch (UTC): 02 July 2020 03:12:36
Eccentricity: 0.0002006
inclination: 98.7290°
perigee height: 811 km
apogee height: 814 km
right ascension of ascending node: 125.5200°
argument of perigee: 50.2517°
revolutions per day: 14.23686921
mean anomaly at epoch: 309.8838°
orbit number at epoch: 14186

The dashed part of the orbit path shows where the satellite is in the earth's shadow,  

DLR